Theta_e
329 327 328 328 331 335 340 342 343 342 343 343 341 340 340 339 338 337 337 337 335 338 338 342 340 346 339 342 341 340 338 334
323 325 327 328 329 332 337 340 341 339 341 341 339 339 338 336 336 336 334 333 335 334 335 333 333 332 334 332 330 330 330 331
321 324 326 327 327 330 334 335 333 337 338 335 334 336 337 337 335 338 336 336 335 331 332 328 329 330 329 327 328 329 328 329
322 319 320 324 327 329 332 330 335 338 337 332 332 333 336 336 336 338 339 337 335 333 335 333 331 333 333 330 329 330 330 331
325 322 320 321 326 330 330 332 334 335 334 335 333 333 335 334 337 339 339 338 339 341 338 337 336 336 336 334 334 333 333 334
326 324 322 321 325 329 331 336 333 332 332 336 335 334 332 332 331 333 341 339 338 337 337 337 338 338 339 340 337 334 333 333
325 326 323 323 325 328 328 331 331 333 332 334 335 334 334 336 333 333 335 341 340 336 338 338 338 338 341 338 338 335 333 334
325 326 324 323 324 327 327 330 331 332 334 333 334 334 334 334 333 333 334 338 343 340 337 337 339 338 338 338 338 338 336 338
325 326 325 325 324 324 323 327 330 332 333 332 331 330 332 332 333 334 334 334 339 339 341 338 338 336 336 336 336 336 335 337
324 323 323 327 325 325 324 325 332 334 334 333 333 332 332 333 333 335 335 335 335 338 337 339 339 339 339 339 336 334 334 336
322 321 322 325 327 327 327 327 330 336 335 334 334 336 337 336 335 337 339 340 337 336 339 340 340 340 338 340 338 338 334 335
325 325 328 326 330 330 329 331 333 335 337 336 335 333 332 336 341 341 342 344 344 340 339 340 342 343 340 339 337 332 331 327
336 337 338 341 337 339 343 343 345 348 341 340 341 339 342 346 344 342 341 343 343 344 344 342 341 340 339 336 333 330 331 331
336 339 340 339 341 341 341 341 341 342 342 344 342 342 341 341 340 338 339 339 337 336 336 335 335 334 331 328 328 325 321 320
333 333 335 336 337 339 339 338 337 340 340 341 341 340 337 334 334 335 336 334 332 331 331 329 327 325 324 320 319 317 316 313
331 331 332 334 335 337 337 336 335 336 338 337 338 337 337 337 336 333 332 330 328 327 325 324 322 320 319 318 318 318 316 315
329 330 331 332 333 332 334 335 335 335 334 334 333 334 334 331 328 328 327 326 324 323 321 320 319 317 317 316 315 313 312 311
329 330 331 332 332 333 335 333 331 332 330 329 329 329 330 327 321 319 319 319 319 318 317 315 315 314 314 312 311 312 312 311
330 329 329 328 328 329 332 331 328 326 328 330 328 327 325 323 323 325 324 323 321 317 317 317 316 315 314 314 313 309 306 305
330 328 327 327 326 329 331 327 325 325 328 327 325 326 323 321 321 321 320 318 318 318 318 318 319 318 315 312 310 308 305 304
Wind_Speed
19 17 19 19 16 11 13 12 12 12 8 5 3 3 3 4 7 6 6 4 4 4 3 3 3 7 3 5 5 4 5 5
18 17 16 13 15 16 14 13 12 13 5 6 6 5 4 4 5 7 5 3 4 4 4 4 4 4 5 5 3 4 6 6
15 19 17 16 15 14 15 12 11 12 10 6 5 6 6 6 5 6 5 5 6 4 5 4 5 4 5 5 5 5 6 7
10 10 15 16 16 16 15 12 13 13 10 8 7 5 6 5 5 6 7 5 5 6 5 6 5 5 5 5 6 6 8 6
14 13 14 17 17 18 15 14 10 11 10 7 6 6 6 5 7 8 7 7 6 6 5 5 6 5 6 6 7 5 4 5
10 11 15 10 12 17 12 13 12 10 7 7 5 5 4 5 4 4 8 8 8 6 5 5 5 3 2 2 3 5 6 3
9 11 13 13 13 13 9 8 10 9 7 4 4 4 3 2 1 3 6 6 6 6 5 5 5 4 3 2 2 2 3 3
10 10 8 12 10 10 10 7 8 7 4 3 2 1 2 2 3 4 5 5 7 6 5 6 5 4 4 3 4 2 4 3
9 10 9 9 6 8 8 9 6 4 2 3 1 2 2 3 4 7 7 6 6 7 6 5 4 5 6 5 2 2 2 1
9 9 9 10 10 9 8 8 8 6 4 3 3 3 4 4 2 6 7 7 7 6 7 7 6 5 6 5 1 1 1 2
10 8 10 8 12 12 12 11 11 8 7 3 2 2 2 2 3 4 5 6 9 7 7 6 6 3 4 2 2 4 2 1
6 5 5 3 8 6 5 1 2 3 6 4 5 4 4 2 2 3 4 9 8 3 4 4 3 3 4 3 2 0 2 2
13 11 12 10 7 7 7 8 6 5 6 4 4 4 1 0 3 6 7 8 11 11 11 9 8 6 6 6 4 5 2 2
16 12 12 13 12 12 11 13 10 10 9 5 3 5 5 5 6 5 5 6 7 10 10 8 8 7 6 5 5 8 5 5
14 12 12 12 12 11 11 13 11 9 10 10 11 9 8 8 6 5 6 5 5 7 8 8 7 7 7 7 9 8 7 5
12 11 10 11 11 11 10 11 10 10 11 10 9 8 6 7 7 6 5 6 6 7 8 9 9 9 8 8 7 6 6 5
8 9 10 10 9 7 8 10 10 10 10 9 10 10 10 9 9 8 5 6 7 7 9 10 9 9 8 7 6 7 7 5
8 9 9 9 8 8 11 11 11 11 11 9 8 9 9 8 9 10 9 9 9 9 9 8 8 8 8 7 5 6 8 5
5 11 3 9 8 10 9 9 10 9 9 10 10 8 7 7 6 8 7 7 7 6 6 6 6 7 6 7 7 7 9 8
9 9 5 9 7 9 9 9 9 8 9 9 9 9 8 8 7 7 7 6 7 6 7 7 6 7 7 7 8 7 9 10
Wind_Direction
159 168 168 181 180 175 184 183 177 180 185 176 183 190 193 199 195 195 195 195 211 220 222 218 216 248 249 251 263 261 267 280
169 175 179 170 180 180 188 183 183 184 167 179 187 188 196 207 210 191 184 206 205 210 215 217 210 218 236 235 246 266 270 276
178 180 181 174 179 182 193 178 181 187 171 179 175 204 192 207 213 206 183 198 204 187 208 205 221 211 227 234 231 240 250 240
186 165 172 177 181 184 189 179 181 182 178 171 189 187 205 193 213 218 205 192 194 186 203 213 227 213 224 227 224 225 242 253
185 184 178 169 183 181 186 174 169 178 178 171 185 200 200 189 211 218 208 199 200 190 186 196 217 215 227 238 238 230 237 233
185 178 177 173 160 177 174 171 173 170 178 162 166 168 170 188 208 214 213 206 201 206 207 216 233 259 241 220 222 231 230 247
193 184 176 172 169 169 174 170 170 173 167 166 177 181 171 191 211 213 229 224 224 202 208 222 223 235 247 241 276 221 289 291
191 183 167 173 169 167 168 169 169 166 132 110 72 62 271 255 247 237 232 228 220 212 234 227 217 231 254 238 226 203 220 239
176 179 155 152 146 149 160 154 177 138 115 110 64 229 259 280 260 261 256 236 228 211 224 230 220 215 232 244 241 255 298 127
181 167 149 161 168 177 167 173 169 181 163 164 161 171 224 232 252 270 254 251 228 218 217 219 216 224 242 261 217 266 229 179
179 172 167 157 173 181 186 187 183 185 178 114 68 35 357 324 280 280 321 284 258 219 215 202 223 217 227 229 221 186 225 249
86 89 86 182 196 189 193 169 129 132 149 152 161 181 211 283 23 72 26 24 15 297 205 172 149 111 82 74 63 340 132 232
81 74 84 60 99 105 93 84 94 112 168 182 175 188 214 186 69 58 35 37 28 44 57 43 61 58 55 53 77 70 33 99
83 72 76 67 68 73 81 83 69 67 74 77 102 98 83 82 70 64 46 46 38 36 49 52 56 54 53 63 62 58 51 61
89 84 78 73 66 71 75 77 72 72 73 73 75 79 80 78 75 77 66 50 42 32 42 52 59 57 60 63 60 59 51 59
89 84 78 74 71 71 78 78 70 58 61 62 59 61 75 77 68 69 61 60 51 54 63 68 71 70 64 64 66 64 58 54
100 94 89 85 78 72 91 88 80 76 69 66 62 66 66 75 72 72 68 83 81 69 73 74 63 63 61 56 59 56 57 42
71 60 84 85 82 76 69 71 73 74 71 66 67 70 78 81 91 87 82 81 79 72 69 68 64 61 62 65 58 49 60 35
287 82 45 88 82 78 76 78 79 74 79 81 76 72 68 76 75 80 83 84 80 79 78 78 83 82 72 74 68 60 63 48
160 130 151 97 84 100 91 82 87 80 80 80 82 85 81 80 68 62 61 55 47 47 51 54 50 69 71 70 69 65 66 57